Home > Weather > Aqtobe > Past weeks

Flag for Kazakhstan Past Weather in Aqtobe, Kazakhstan — Yesterday and Last 2 Weeks

Now
59 °F

Clear.


Feels Like: 60 °F
Forecast: 64 / 89 °F
Wind: 3 mph from Southwest

Location: Aktjubinsk

Current Time: Jul 30, 2016 at 6:54:24 AM

Latest Report: Jul 30, 2016 at 6:30 AM


Visibility: 3 mi

Pressure: 29.89 "Hg

Humidity: 88%

Dew Point: 55 °F

Location of AqtobeLocation

Past Weather in Aqtobe — Graph

°F

Aqtobe Temperature Yesterday

Maximum temperature yesterday: 86 °F (at 1:30 PM)
Minimum temperature yesterday: 59 °F (at 4:30 AM)
Average temperature yesterday: 73 °F

High & Low Weather Summary for the Past Weeks

 TemperatureHumidityPressure
High93 °F (Jul 15, 12:30 PM)100% (Jul 25, 4:30 AM)29.98 "Hg (Jul 25, 4:30 AM)
Low50 °F (Jul 28, 5:30 AM)22% (Jul 16, 6:00 PM)29.59 "Hg (Jul 18, 2:30 PM)
Average71 °F58%29.81 "Hg
* Reported Jul 15 5:00 AM — Jul 30 5:30 AM, Aqtobe, Weather by CustomWeather, © 2016

Note: Actual official high and low records may vary slightly from our data, if they occured in-between our weather recording intervals... More about our weather records

Advertising

Aqtobe Weather History for the Previous 24 Hours

Scroll right to see more
 ConditionsComfort  
Time TempWeatherWind HumidityBarometerVisibility
5:30 AM
Sat, Jul 30
59 °FClear.No wind82%29.89 "Hg4 mi
5:00 AM61 °FClear.1 mph77%29.86 "Hg4 mi
4:30 AM61 °FClear.No wind77%29.86 "HgN/A
4:00 AM64 °FClear.No wind68%29.86 "Hg4 mi
3:30 AM66 °FClear.6 mph64%29.86 "Hg4 mi
3:00 AM64 °FClear.6 mph68%29.86 "Hg10 mi
2:30 AM64 °FClear.3 mph68%29.86 "Hg10 mi
2:00 AM64 °FClear.3 mph68%29.86 "Hg10 mi
1:30 AM66 °FClear.6 mph64%29.86 "Hg10 mi
1:00 AM64 °FClear.6 mph73%29.86 "Hg10 mi
12:30 AM66 °FClear.6 mph68%29.86 "Hg4 mi
12:00 AM68 °FClear.6 mph64%29.86 "Hg4 mi
11:30 PM
Fri, Jul 29
68 °FPassing clouds.8 mph64%29.86 "Hg4 mi
11:00 PM70 °FPassing clouds.3 mph60%29.86 "Hg4 mi
10:30 PM70 °FPassing clouds.6 mph57%29.86 "Hg4 mi
10:00 PM73 °FPartly cloudy.8 mph47%29.86 "Hg4 mi
9:30 PM73 °FPartly cloudy.6 mph47%29.86 "Hg4 mi
9:00 PM77 °FPartly cloudy.8 mph39%29.86 "Hg4 mi
8:30 PM77 °FBroken clouds.10 mph42%29.86 "HgN/A
8:00 PM75 °FBroken clouds.15 mph44%29.86 "HgN/A
7:30 PM75 °FBroken clouds.17 mph44%29.83 "HgN/A
7:00 PM77 °FBroken clouds.17 mph44%29.86 "HgN/A
6:30 PM82 °FPartly sunny.13 mph32%29.83 "HgN/A
6:00 PM84 °FScattered clouds.15 mph31%29.83 "HgN/A
5:30 PM84 °FBroken clouds.15 mph31%29.83 "HgN/A
5:00 PM84 °FBroken clouds.10 mph31%29.83 "HgN/A
4:30 PM82 °FBroken clouds.10 mph32%29.86 "HgN/A
4:00 PM84 °FBroken clouds.15 mph31%29.86 "HgN/A
3:30 PM86 °FBroken clouds.8 mph27%29.86 "HgN/A
3:00 PM82 °FBroken clouds.8 mph30%29.86 "HgN/A
2:30 PM82 °FBroken clouds.13 mph30%29.86 "HgN/A
2:00 PM84 °FBroken clouds.13 mph29%29.86 "HgN/A
1:30 PM86 °FBroken clouds.10 mph25%29.86 "HgN/A
1:00 PM84 °FBroken clouds.10 mph29%29.86 "Hg4 mi
12:30 PM84 °FBroken clouds.8 mph31%29.89 "Hg5 mi
12:00 PM82 °FBroken clouds.8 mph32%29.89 "Hg5 mi
11:30 AM82 °FClear.8 mph35%29.89 "Hg5 mi
11:00 AM79 °FClear.8 mph42%29.89 "Hg4 mi
10:30 AM79 °FClear.8 mph39%29.89 "Hg4 mi
10:00 AM77 °FClear.6 mph44%29.92 "Hg3 mi
9:30 AM75 °FClear.3 mph47%29.92 "Hg3 mi
9:00 AM73 °FClear.3 mph53%29.92 "Hg3 mi
8:30 AM70 °FClear.6 mph60%29.92 "Hg4 mi
8:00 AM68 °FClear.3 mph64%29.92 "Hg4 mi
7:30 AM64 °FClear.1 mph73%29.92 "Hg4 mi
7:00 AM61 °FClear.1 mph83%29.92 "Hg4 mi
6:30 AM59 °FClear.3 mph82%29.92 "Hg4 mi
6:00 AM59 °FClear.1 mph77%29.89 "Hg4 mi
Weather by CustomWeather, © 2016

See weather overviewHow to use our weather pages